QPF
0.01 0.00 0.00 0.00 0.00 0.01 0.01 0.01 0.01 0.02 0.03 0.03 0.04 0.05 0.07 0.07 0.06 0.05 0.04 0.06 0.09 0.10 0.12 0.12 0.12 0.10 0.09 0.09 0.08 0.07 0.06 0.04 0.03 0.03 0.03 0.02 0.01 0.00 0.00 0.00 0.00 0.00 0.00
0.01 0.00 0.00 0.00 0.01 0.01 0.02 0.01 0.01 0.01 0.02 0.02 0.03 0.03 0.05 0.06 0.06 0.06 0.06 0.05 0.08 0.09 0.11 0.13 0.15 0.14 0.13 0.12 0.10 0.11 0.09 0.06 0.05 0.03 0.03 0.03 0.02 0.01 0.00 0.00 0.00 0.00 0.00
0.00 0.00 0.00 0.00 0.00 0.00 0.01 0.01 0.01 0.01 0.01 0.01 0.02 0.02 0.03 0.03 0.04 0.06 0.07 0.05 0.05 0.07 0.10 0.13 0.13 0.13 0.14 0.13 0.13 0.12 0.10 0.08 0.07 0.05 0.03 0.03 0.03 0.02 0.00 0.00 0.00 0.00 0.00
0.00 0.00 0.00 0.00 0.00 0.00 0.00 0.00 0.00 0.00 0.00 0.00 0.00 0.00 0.00 0.01 0.02 0.03 0.03 0.03 0.02 0.03 0.06 0.10 0.09 0.09 0.12 0.13 0.12 0.13 0.13 0.11 0.09 0.07 0.06 0.05 0.04 0.03 0.01 0.00 0.00 0.00 0.00
0.00 0.00 0.00 0.00 0.00 0.00 0.00 0.00 0.00 0.00 0.00 0.00 0.00 0.00 0.00 0.00 0.01 0.01 0.01 0.02 0.03 0.03 0.03 0.04 0.09 0.09 0.10 0.12 0.13 0.14 0.14 0.13 0.11 0.10 0.08 0.07 0.06 0.04 0.02 0.01 0.01 0.00 0.00
0.00 0.00 0.00 0.00 0.00 0.00 0.00 0.00 0.00 0.00 0.00 0.00 0.00 0.00 0.00 0.00 0.00 0.00 0.00 0.00 0.01 0.02 0.03 0.03 0.05 0.06 0.09 0.12 0.12 0.12 0.13 0.13 0.13 0.11 0.10 0.08 0.07 0.06 0.04 0.03 0.02 0.01 0.00
0.00 0.00 0.00 0.00 0.00 0.00 0.00 0.00 0.00 0.00 0.00 0.00 0.00 0.00 0.00 0.00 0.00 0.00 0.00 0.00 0.00 0.01 0.01 0.02 0.03 0.04 0.05 0.08 0.08 0.09 0.12 0.13 0.14 0.13 0.12 0.11 0.10 0.08 0.05 0.04 0.03 0.02 0.01
0.00 0.00 0.00 0.00 0.00 0.00 0.00 0.00 0.00 0.00 0.00 0.00 0.00 0.00 0.00 0.00 0.00 0.00 0.00 0.00 0.00 0.01 0.01 0.01 0.02 0.03 0.03 0.04 0.04 0.07 0.11 0.12 0.14 0.13 0.12 0.11 0.10 0.09 0.07 0.05 0.04 0.03 0.02
0.00 0.00 0.00 0.00 0.00 0.00 0.00 0.00 0.00 0.00 0.00 0.00 0.00 0.00 0.00 0.00 0.00 0.00 0.00 0.00 0.00 0.00 0.00 0.01 0.01 0.02 0.03 0.03 0.04 0.06 0.10 0.10 0.13 0.15 0.15 0.13 0.10 0.09 0.07 0.06 0.06 0.04 0.03
0.00 0.00 0.00 0.00 0.00 0.00 0.00 0.00 0.00 0.00 0.00 0.00 0.00 0.00 0.00 0.00 0.00 0.00 0.00 0.00 0.00 0.00 0.00 0.00 0.01 0.01 0.02 0.03 0.03 0.03 0.04 0.06 0.10 0.13 0.16 0.16 0.14 0.11 0.08 0.08 0.08 0.07 0.05
0.00 0.00 0.00 0.00 0.00 0.00 0.00 0.00 0.00 0.00 0.00 0.00 0.00 0.00 0.00 0.00 0.00 0.00 0.00 0.00 0.00 0.00 0.00 0.00 0.00 0.00 0.00 0.01 0.01 0.01 0.01 0.03 0.05 0.07 0.10 0.13 0.15 0.15 0.13 0.11 0.11 0.10 0.08
0.00 0.00 0.00 0.00 0.00 0.00 0.00 0.00 0.00 0.00 0.00 0.00 0.00 0.00 0.00 0.00 0.00 0.00 0.00 0.00 0.00 0.00 0.00 0.00 0.00 0.00 0.00 0.00 0.01 0.01 0.02 0.03 0.03 0.03 0.05 0.07 0.10 0.12 0.13 0.14 0.14 0.13 0.12
0.00 0.00 0.00 0.00 0.00 0.00 0.00 0.00 0.00 0.00 0.00 0.00 0.00 0.00 0.00 0.00 0.00 0.00 0.00 0.00 0.00 0.00 0.00 0.00 0.00 0.00 0.00 0.01 0.01 0.01 0.03 0.03 0.03 0.02 0.03 0.03 0.05 0.06 0.09 0.11 0.13 0.14 0.14
0.00 0.00 0.00 0.00 0.00 0.00 0.00 0.00 0.00 0.00 0.00 0.00 0.00 0.00 0.00 0.00 0.00 0.00 0.00 0.00 0.00 0.00 0.00 0.00 0.00 0.00 0.00 0.00 0.01 0.01 0.01 0.01 0.02 0.02 0.03 0.04 0.03 0.04 0.05 0.07 0.09 0.11 0.12
0.00 0.00 0.00 0.00 0.00 0.00 0.00 0.00 0.00 0.00 0.00 0.00 0.00 0.00 0.00 0.00 0.00 0.00 0.00 0.00 0.00 0.00 0.00 0.00 0.00 0.00 0.00 0.00 0.00 0.00 0.00 0.00 0.01 0.01 0.02 0.02 0.03 0.04 0.05 0.06 0.06 0.07 0.07
0.00 0.00 0.00 0.00 0.00 0.00 0.00 0.00 0.00 0.00 0.00 0.00 0.00 0.00 0.00 0.00 0.00 0.00 0.00 0.00 0.00 0.00 0.00 0.00 0.00 0.00 0.00 0.00 0.00 0.00 0.00 0.00 0.00 0.00 0.01 0.01 0.01 0.02 0.04 0.05 0.06 0.06 0.06
0.00 0.00 0.00 0.00 0.00 0.00 0.00 0.00 0.00 0.00 0.00 0.00 0.00 0.00 0.00 0.00 0.00 0.00 0.00 0.00 0.00 0.00 0.00 0.00 0.00 0.00 0.00 0.00 0.00 0.00 0.00 0.00 0.00 0.00 0.00 0.01 0.01 0.01 0.02 0.03 0.05 0.06 0.07
0.00 0.00 0.00 0.00 0.00 0.00 0.00 0.00 0.00 0.00 0.00 0.00 0.00 0.00 0.00 0.00 0.00 0.00 0.00 0.00 0.00 0.00 0.00 0.00 0.00 0.00 0.00 0.00 0.00 0.00 0.00 0.00 0.00 0.00 0.00 0.00 0.01 0.02 0.02 0.02 0.03 0.04 0.06
0.00 0.00 0.00 0.00 0.00 0.00 0.00 0.00 0.00 0.00 0.00 0.00 0.00 0.00 0.00 0.00 0.00 0.00 0.00 0.00 0.00 0.00 0.00 0.00 0.00 0.00 0.00 0.00 0.00 0.00 0.00 0.00 0.00 0.00 0.00 0.00 0.00 0.01 0.01 0.02 0.02 0.03 0.03
0.00 0.00 0.00 0.00 0.00 0.00 0.00 0.00 0.00 0.00 0.00 0.00 0.00 0.00 0.00 0.00 0.00 0.00 0.00 0.00 0.00 0.00 0.00 0.00 0.00 0.00 0.00 0.00 0.00 0.00 0.00 0.00 0.00 0.00 0.00 0.00 0.00 0.00 0.00 0.01 0.02 0.03 0.03
0.00 0.00 0.00 0.00 0.00 0.00 0.00 0.00 0.00 0.00 0.00 0.00 0.00 0.00 0.00 0.00 0.00 0.00 0.00 0.00 0.00 0.00 0.00 0.00 0.00 0.00 0.00 0.00 0.00 0.00 0.00 0.00 0.00 0.00 0.00 0.00 0.00 0.00 0.00 0.00 0.01 0.02 0.02
0.00 0.00 0.00 0.00 0.00 0.00 0.00 0.00 0.00 0.00 0.00 0.00 0.00 0.00 0.00 0.00 0.00 0.00 0.00 0.00 0.00 0.00 0.00 0.00 0.00 0.00 0.00 0.00 0.00 0.00 0.00 0.00 0.00 0.00 0.00 0.00 0.00 0.00 0.00 0.00 0.01 0.01 0.01
0.00 0.00 0.00 0.00 0.00 0.00 0.00 0.00 0.00 0.00 0.00 0.00 0.00 0.00 0.00 0.00 0.00 0.00 0.00 0.00 0.00 0.00 0.00 0.00 0.00 0.00 0.00 0.00 0.00 0.00 0.00 0.00 0.00 0.00 0.00 0.00 0.00 0.00 0.00 0.00 0.00 0.01 0.01
0.00 0.00 0.00 0.00 0.00 0.00 0.00 0.00 0.00 0.00 0.00 0.00 0.00 0.00 0.00 0.00 0.00 0.00 0.00 0.00 0.00 0.00 0.00 0.00 0.00 0.00 0.00 0.00 0.00 0.00 0.00 0.00 0.00 0.00 0.00 0.00 0.00 0.00 0.00 0.00 0.00 0.01 0.01
0.00 0.00 0.01 0.01 0.00 0.00 0.00 0.00 0.00 0.00 0.00 0.00 0.00 0.00 0.00 0.00 0.00 0.00 0.00 0.00 0.00 0.00 0.00 0.00 0.00 0.00 0.00 0.00 0.00 0.00 0.00 0.00 0.00 0.00 0.00 0.00 0.00 0.00 0.00 0.00 0.00 0.00 0.01
0.03 0.03 0.02 0.01 0.01 0.01 0.01 0.01 0.01 0.00 0.00 0.00 0.00 0.00 0.00 0.00 0.00 0.00 0.00 0.00 0.00 0.00 0.00 0.00 0.00 0.00 0.00 0.00 0.00 0.00 0.00 0.00 0.00 0.00 0.00 0.00 0.00 0.00 0.00 0.00 0.00 0.00 0.01
MSLP
1017.85 1017.65 1017.44 1017.23 1017.07 1016.97 1016.95 1017.00 1017.11 1017.27 1017.44 1017.61 1017.75 1017.87 1017.95 1018.01 1018.05 1018.10 1018.15 1018.22 1018.33 1018.46 1018.64 1018.86 1019.12 1019.44 1019.78 1020.16 1020.54 1020.91 1021.25 1021.56 1021.83 1022.06 1022.27 1022.47 1022.68 1022.91 1023.15 1023.41 1023.67 1023.92 1024.14
1018.11 1017.92 1017.72 1017.53 1017.38 1017.28 1017.25 1017.28 1017.37 1017.51 1017.66 1017.82 1017.95 1018.05 1018.11 1018.13 1018.12 1018.09 1018.07 1018.07 1018.11 1018.20 1018.36 1018.59 1018.88 1019.24 1019.63 1020.04 1020.45 1020.84 1021.18 1021.48 1021.73 1021.95 1022.15 1022.35 1022.57 1022.82 1023.10 1023.38 1023.67 1023.94 1024.18
1018.34 1018.19 1018.04 1017.89 1017.77 1017.69 1017.66 1017.67 1017.74 1017.84 1017.97 1018.09 1018.20 1018.27 1018.30 1018.28 1018.22 1018.13 1018.04 1017.96 1017.94 1017.98 1018.11 1018.32 1018.63 1019.01 1019.43 1019.88 1020.31 1020.70 1021.04 1021.32 1021.55 1021.75 1021.94 1022.15 1022.38 1022.65 1022.95 1023.26 1023.58 1023.88 1024.15
1018.51 1018.43 1018.35 1018.27 1018.20 1018.15 1018.12 1018.13 1018.16 1018.22 1018.30 1018.38 1018.45 1018.49 1018.49 1018.44 1018.34 1018.20 1018.04 1017.90 1017.82 1017.80 1017.89 1018.08 1018.38 1018.76 1019.19 1019.64 1020.07 1020.46 1020.79 1021.06 1021.27 1021.47 1021.65 1021.86 1022.11 1022.39 1022.71 1023.06 1023.41 1023.74 1024.04
1018.64 1018.63 1018.63 1018.62 1018.62 1018.61 1018.60 1018.58 1018.58 1018.59 1018.62 1018.65 1018.69 1018.70 1018.68 1018.60 1018.48 1018.30 1018.11 1017.92 1017.77 1017.71 1017.74 1017.88 1018.15 1018.50 1018.91 1019.34 1019.75 1020.13 1020.44 1020.69 1020.90 1021.09 1021.28 1021.49 1021.75 1022.06 1022.41 1022.78 1023.15 1023.52 1023.85
1018.71 1018.78 1018.86 1018.94 1019.00 1019.03 1019.03 1019.00 1018.96 1018.92 1018.90 1018.89 1018.89 1018.89 1018.86 1018.78 1018.65 1018.47 1018.25 1018.03 1017.84 1017.71 1017.68 1017.76 1017.96 1018.25 1018.61 1018.99 1019.37 1019.71 1020.00 1020.24 1020.44 1020.63 1020.83 1021.06 1021.34 1021.67 1022.03 1022.43 1022.83 1023.22 1023.58
1018.77 1018.90 1019.06 1019.20 1019.32 1019.39 1019.40 1019.36 1019.29 1019.21 1019.14 1019.10 1019.08 1019.07 1019.05 1019.00 1018.89 1018.72 1018.50 1018.25 1018.02 1017.84 1017.73 1017.73 1017.84 1018.05 1018.32 1018.63 1018.95 1019.24 1019.50 1019.72 1019.92 1020.12 1020.33 1020.58 1020.88 1021.22 1021.61 1022.02 1022.43 1022.84 1023.22
1018.84 1019.02 1019.22 1019.42 1019.58 1019.68 1019.70 1019.65 1019.56 1019.46 1019.36 1019.30 1019.28 1019.28 1019.28 1019.26 1019.19 1019.05 1018.84 1018.60 1018.34 1018.10 1017.92 1017.83 1017.83 1017.93 1018.10 1018.31 1018.55 1018.78 1018.99 1019.19 1019.38 1019.58 1019.81 1020.08 1020.39 1020.75 1021.14 1021.55 1021.97 1022.38 1022.77
1018.91 1019.12 1019.36 1019.60 1019.79 1019.91 1019.94 1019.90 1019.80 1019.68 1019.57 1019.51 1019.50 1019.52 1019.56 1019.58 1019.56 1019.46 1019.28 1019.04 1018.76 1018.48 1018.23 1018.05 1017.94 1017.92 1017.97 1018.07 1018.21 1018.36 1018.52 1018.68 1018.86 1019.06 1019.30 1019.58 1019.89 1020.25 1020.63 1021.02 1021.43 1021.83 1022.22
1019.00 1019.22 1019.48 1019.74 1019.95 1020.08 1020.13 1020.09 1019.99 1019.88 1019.78 1019.73 1019.73 1019.79 1019.86 1019.93 1019.95 1019.90 1019.76 1019.54 1019.26 1018.95 1018.64 1018.38 1018.17 1018.03 1017.96 1017.95 1017.98 1018.04 1018.13 1018.25 1018.40 1018.59 1018.81 1019.08 1019.39 1019.73 1020.08 1020.45 1020.82 1021.19 1021.56
1019.07 1019.29 1019.55 1019.81 1020.03 1020.18 1020.24 1020.22 1020.14 1020.04 1019.96 1019.93 1019.96 1020.04 1020.15 1020.26 1020.32 1020.31 1020.21 1020.02 1019.75 1019.43 1019.09 1018.77 1018.48 1018.24 1018.07 1017.94 1017.87 1017.84 1017.85 1017.91 1018.01 1018.17 1018.37 1018.62 1018.90 1019.20 1019.52 1019.84 1020.16 1020.48 1020.81
1019.08 1019.30 1019.55 1019.81 1020.03 1020.18 1020.26 1020.26 1020.20 1020.13 1020.08 1020.07 1020.12 1020.22 1020.36 1020.49 1020.60 1020.62 1020.56 1020.41 1020.16 1019.86 1019.51 1019.16 1018.82 1018.52 1018.25 1018.04 1017.87 1017.75 1017.68 1017.67 1017.71 1017.82 1017.98 1018.19 1018.43 1018.69 1018.95 1019.21 1019.47 1019.74 1020.02
1019.00 1019.21 1019.45 1019.70 1019.91 1020.07 1020.16 1020.18 1020.16 1020.11 1020.08 1020.09 1020.16 1020.28 1020.43 1020.58 1020.70 1020.76 1020.74 1020.63 1020.43 1020.16 1019.84 1019.49 1019.14 1018.80 1018.48 1018.20 1017.95 1017.75 1017.60 1017.51 1017.49 1017.54 1017.65 1017.80 1017.99 1018.20 1018.41 1018.61 1018.81 1019.01 1019.23
1018.82 1019.02 1019.24 1019.47 1019.68 1019.84 1019.93 1019.98 1019.97 1019.95 1019.95 1019.97 1020.05 1020.17 1020.32 1020.48 1020.61 1020.69 1020.71 1020.64 1020.49 1020.28 1020.01 1019.71 1019.38 1019.04 1018.70 1018.37 1018.07 1017.80 1017.59 1017.43 1017.34 1017.32 1017.36 1017.46 1017.60 1017.75 1017.90 1018.05 1018.19 1018.33 1018.49
1018.54 1018.72 1018.93 1019.14 1019.33 1019.48 1019.58 1019.64 1019.66 1019.66 1019.66 1019.70 1019.78 1019.89 1020.03 1020.18 1020.32 1020.42 1020.46 1020.44 1020.36 1020.21 1020.02 1019.77 1019.49 1019.18 1018.86 1018.52 1018.19 1017.88 1017.60 1017.38 1017.23 1017.14 1017.13 1017.17 1017.25 1017.35 1017.46 1017.56 1017.65 1017.74 1017.85
1018.17 1018.35 1018.53 1018.72 1018.89 1019.03 1019.13 1019.19 1019.22 1019.24 1019.26 1019.30 1019.37 1019.48 1019.60 1019.74 1019.87 1019.97 1020.04 1020.07 1020.04 1019.97 1019.85 1019.68 1019.47 1019.22 1018.93 1018.60 1018.27 1017.93 1017.62 1017.35 1017.14 1017.00 1016.92 1016.91 1016.94 1017.00 1017.07 1017.13 1017.19 1017.25 1017.32
1017.75 1017.92 1018.09 1018.25 1018.40 1018.53 1018.62 1018.68 1018.72 1018.74 1018.77 1018.81 1018.88 1018.97 1019.08 1019.20 1019.32 1019.42 1019.51 1019.57 1019.60 1019.59 1019.54 1019.45 1019.31 1019.12 1018.88 1018.59 1018.27 1017.93 1017.60 1017.30 1017.05 1016.86 1016.74 1016.69 1016.67 1016.69 1016.73 1016.76 1016.80 1016.84 1016.89
1017.30 1017.46 1017.61 1017.76 1017.89 1018.00 1018.09 1018.15 1018.19 1018.22 1018.25 1018.29 1018.36 1018.44 1018.53 1018.64 1018.74 1018.84 1018.94 1019.02 1019.08 1019.12 1019.13 1019.11 1019.03 1018.91 1018.72 1018.48 1018.19 1017.87 1017.54 1017.23 1016.96 1016.73 1016.57 1016.47 1016.42 1016.40 1016.41 1016.42 1016.44 1016.46 1016.50
1016.81 1016.97 1017.12 1017.25 1017.37 1017.47 1017.55 1017.60 1017.65 1017.69 1017.73 1017.78 1017.84 1017.92 1018.00 1018.09 1018.18 1018.28 1018.37 1018.45 1018.53 1018.60 1018.65 1018.67 1018.66 1018.58 1018.45 1018.26 1018.02 1017.73 1017.42 1017.12 1016.83 1016.59 1016.40 1016.27 1016.17 1016.12 1016.09 1016.08 1016.07 1016.08 1016.11
1016.28 1016.44 1016.59 1016.72 1016.83 1016.92 1017.00 1017.06 1017.11 1017.16 1017.21 1017.27 1017.34 1017.41 1017.50 1017.58 1017.67 1017.75 1017.83 1017.91 1017.98 1018.06 1018.13 1018.17 1018.19 1018.16 1018.08 1017.94 1017.74 1017.50 1017.23 1016.95 1016.68 1016.43 1016.22 1016.05 1015.92 1015.83 1015.75 1015.70 1015.67 1015.66 1015.68
1015.67 1015.84 1016.00 1016.13 1016.25 1016.34 1016.42 1016.49 1016.55 1016.61 1016.68 1016.75 1016.83 1016.92 1017.01 1017.09 1017.16 1017.23 1017.30 1017.36 1017.43 1017.49 1017.56 1017.61 1017.64 1017.64 1017.60 1017.51 1017.37 1017.19 1016.97 1016.73 1016.48 1016.25 1016.03 1015.83 1015.66 1015.52 1015.40 1015.30 1015.23 1015.18 1015.18
1014.99 1015.17 1015.34 1015.48 1015.61 1015.71 1015.80 1015.88 1015.95 1016.03 1016.11 1016.20 1016.29 1016.39 1016.49 1016.57 1016.64 1016.70 1016.76 1016.80 1016.84 1016.89 1016.94 1016.98 1017.02 1017.04 1017.03 1016.99 1016.91 1016.78 1016.63 1016.44 1016.24 1016.02 1015.81 1015.59 1015.39 1015.20 1015.03 1014.87 1014.75 1014.67 1014.63
1014.26 1014.45 1014.62 1014.78 1014.92 1015.04 1015.14 1015.22 1015.31 1015.39 1015.48 1015.58 1015.69 1015.80 1015.90 1015.99 1016.06 1016.12 1016.16 1016.19 1016.21 1016.23 1016.26 1016.29 1016.32 1016.35 1016.37 1016.37 1016.34 1016.29 1016.20 1016.08 1015.92 1015.75 1015.55 1015.34 1015.11 1014.88 1014.65 1014.45 1014.27 1014.13 1014.06
1013.54 1013.72 1013.90 1014.07 1014.21 1014.34 1014.44 1014.53 1014.61 1014.69 1014.78 1014.88 1014.99 1015.10 1015.21 1015.31 1015.39 1015.44 1015.48 1015.49 1015.50 1015.51 1015.51 1015.53 1015.56 1015.59 1015.63 1015.66 1015.69 1015.69 1015.67 1015.62 1015.53 1015.41 1015.24 1015.04 1014.81 1014.55 1014.29 1014.03 1013.80 1013.62 1013.50
1012.90 1013.07 1013.24 1013.41 1013.55 1013.66 1013.76 1013.83 1013.90 1013.96 1014.04 1014.12 1014.22 1014.32 1014.42 1014.52 1014.60 1014.66 1014.70 1014.72 1014.72 1014.72 1014.71 1014.72 1014.74 1014.77 1014.83 1014.89 1014.95 1015.01 1015.06 1015.07 1015.05 1014.98 1014.86 1014.69 1014.47 1014.21 1013.93 1013.64 1013.37 1013.14 1012.97
1012.43 1012.57 1012.72 1012.86 1012.98 1013.07 1013.14 1013.18 1013.21 1013.23 1013.26 1013.31 1013.37 1013.45 1013.54 1013.64 1013.72 1013.79 1013.84 1013.87 1013.88 1013.88 1013.88 1013.88 1013.89 1013.93 1013.99 1014.07 1014.16 1014.26 1014.35 1014.43 1014.47 1014.46 1014.39 1014.26 1014.07 1013.83 1013.54 1013.24 1012.95 1012.69 1012.48
Thickness
5721 5721 5720 5721 5721 5721 5720 5719 5718 5718 5718 5718 5718 5718 5718 5718 5718 5718 5717 5717 5717 5717 5716 5715 5715 5714 5714 5713 5713 5713 5713 5713 5713 5713 5712 5712 5712 5711 5711 5711 5711 5711 5711
5718 5718 5717 5717 5717 5717 5717 5716 5715 5715 5715 5715 5715 5715 5715 5715 5716 5716 5716 5715 5716 5715 5715 5714 5713 5713 5712 5712 5711 5711 5712 5712 5712 5712 5712 5711 5711 5710 5710 5710 5710 5710 5709
5715 5715 5714 5714 5713 5713 5713 5713 5712 5712 5711 5711 5711 5712 5712 5712 5713 5713 5713 5713 5714 5714 5713 5712 5711 5711 5711 5711 5710 5710 5710 5711 5711 5711 5711 5711 5710 5710 5709 5709 5709 5709 5709
5713 5712 5711 5710 5710 5710 5710 5709 5708 5707 5707 5707 5707 5708 5709 5709 5710 5711 5711 5711 5711 5712 5712 5711 5710 5710 5709 5709 5709 5709 5709 5709 5710 5710 5710 5710 5710 5709 5709 5708 5708 5708 5708
5710 5709 5708 5707 5707 5707 5706 5706 5704 5703 5702 5703 5704 5705 5705 5706 5707 5708 5709 5709 5709 5709 5709 5710 5709 5709 5708 5708 5708 5708 5708 5708 5708 5708 5708 5708 5709 5709 5708 5708 5707 5707 5707
5707 5706 5705 5704 5704 5703 5702 5702 5700 5700 5699 5699 5701 5701 5701 5703 5704 5704 5705 5706 5707 5707 5707 5707 5707 5707 5707 5707 5706 5707 5707 5707 5707 5707 5707 5707 5708 5708 5708 5707 5707 5707 5706
5705 5704 5702 5701 5701 5700 5699 5698 5697 5696 5695 5696 5696 5696 5697 5698 5699 5700 5701 5703 5704 5704 5704 5704 5704 5705 5705 5705 5705 5705 5705 5705 5705 5705 5706 5706 5706 5707 5707 5707 5707 5706 5706
5703 5702 5700 5699 5697 5696 5695 5695 5694 5692 5691 5691 5691 5689 5687 5690 5693 5695 5696 5697 5698 5699 5700 5701 5701 5702 5702 5702 5703 5704 5703 5703 5703 5703 5704 5704 5705 5705 5706 5706 5706 5706 5706
5702 5700 5698 5697 5695 5694 5692 5691 5690 5689 5687 5686 5686 5685 5682 5681 5683 5687 5689 5690 5692 5693 5695 5696 5697 5698 5699 5699 5700 5701 5701 5701 5701 5701 5702 5702 5703 5704 5705 5705 5705 5705 5705
5701 5699 5697 5695 5693 5691 5690 5689 5687 5686 5685 5683 5682 5681 5680 5679 5677 5678 5682 5684 5686 5687 5688 5690 5691 5693 5694 5695 5696 5697 5697 5698 5698 5699 5699 5700 5701 5702 5702 5703 5704 5704 5704
5700 5698 5696 5694 5692 5690 5688 5686 5684 5683 5681 5680 5678 5676 5675 5673 5672 5671 5671 5674 5677 5680 5682 5683 5685 5687 5688 5690 5691 5692 5693 5694 5695 5695 5696 5697 5698 5699 5700 5701 5702 5703 5703
5699 5698 5696 5693 5691 5689 5686 5684 5682 5681 5679 5677 5674 5673 5671 5669 5667 5665 5664 5664 5666 5671 5674 5676 5678 5679 5681 5683 5684 5686 5687 5689 5690 5691 5692 5693 5694 5696 5697 5698 5699 5701 5702
5698 5698 5696 5693 5691 5688 5685 5683 5680 5678 5676 5674 5672 5670 5668 5666 5664 5661 5659 5658 5658 5661 5664 5668 5670 5671 5673 5675 5677 5679 5681 5683 5684 5685 5687 5688 5690 5691 5693 5695 5696 5698 5700
5700 5698 5696 5693 5690 5687 5684 5681 5678 5676 5673 5671 5669 5667 5664 5662 5660 5657 5655 5652 5651 5652 5654 5658 5661 5663 5664 5666 5668 5671 5673 5675 5677 5679 5681 5683 5685 5686 5688 5690 5692 5694 5696
5699 5697 5694 5691 5688 5685 5682 5679 5675 5673 5670 5668 5665 5663 5660 5658 5656 5653 5651 5649 5646 5645 5646 5648 5651 5654 5655 5657 5659 5661 5664 5667 5669 5672 5674 5676 5679 5680 5682 5685 5688 5690 5692
5697 5695 5692 5689 5687 5683 5680 5676 5673 5670 5667 5664 5662 5659 5656 5654 5652 5649 5646 5644 5642 5640 5639 5640 5642 5644 5646 5648 5650 5651 5654 5657 5660 5663 5666 5669 5671 5674 5676 5679 5682 5685 5687
5695 5693 5690 5687 5684 5681 5678 5674 5671 5668 5664 5662 5659 5656 5653 5651 5647 5645 5642 5639 5637 5634 5634 5634 5634 5635 5636 5638 5641 5642 5645 5647 5651 5654 5657 5660 5663 5666 5669 5672 5675 5678 5681
5694 5691 5688 5684 5682 5678 5675 5671 5668 5665 5662 5659 5656 5652 5650 5647 5643 5641 5637 5635 5633 5630 5629 5628 5628 5628 5628 5629 5631 5633 5635 5638 5640 5644 5648 5651 5655 5658 5662 5665 5668 5672 5675
5691 5688 5685 5682 5679 5676 5672 5669 5666 5663 5660 5657 5653 5650 5647 5642 5639 5636 5633 5630 5628 5627 5623 5622 5622 5620 5620 5620 5621 5623 5625 5627 5631 5634 5638 5642 5645 5649 5653 5657 5661 5665 5669
5688 5685 5682 5680 5677 5673 5670 5666 5663 5660 5656 5653 5650 5647 5643 5640 5636 5633 5629 5626 5623 5620 5618 5616 5615 5614 5612 5612 5611 5613 5615 5617 5620 5624 5627 5630 5634 5638 5643 5648 5653 5656 5660
5686 5683 5679 5676 5673 5670 5667 5664 5660 5657 5653 5650 5647 5643 5640 5637 5634 5630 5626 5622 5618 5615 5612 5610 5609 5607 5606 5604 5604 5605 5606 5607 5609 5612 5616 5620 5623 5627 5631 5637 5642 5647 5652
5682 5678 5675 5672 5670 5668 5665 5662 5657 5653 5650 5646 5643 5640 5636 5633 5630 5627 5623 5619 5615 5610 5607 5604 5603 5601 5600 5598 5596 5596 5596 5597 5599 5602 5604 5608 5611 5616 5620 5626 5632 5637 5643
5677 5674 5672 5669 5667 5665 5661 5657 5653 5649 5646 5642 5639 5635 5632 5630 5625 5621 5618 5615 5611 5607 5604 5600 5599 5597 5595 5592 5590 5589 5588 5589 5591 5593 5592 5598 5601 5606 5611 5616 5622 5628 5634
5671 5669 5667 5665 5662 5660 5656 5652 5648 5644 5641 5638 5635 5631 5627 5624 5620 5615 5611 5608 5605 5602 5598 5596 5594 5593 5589 5587 5584 5583 5582 5581 5582 5582 5583 5588 5593 5597 5603 5608 5613 5619 5625
5665 5663 5662 5659 5656 5655 5652 5647 5641 5637 5635 5633 5630 5626 5622 5619 5615 5608 5604 5601 5599 5596 5592 5590 5588 5586 5583 5580 5576 5573 5572 5572 5576 5577 5576 5579 5585 5588 5594 5600 5606 5611 5616
5658 5655 5653 5651 5649 5648 5645 5640 5634 5630 5628 5627 5624 5621 5617 5613 5610 5603 5598 5595 5593 5591 5586 5584 5581 5579 5576 5573 5570 5568 5568 5568 5569 5571 5572 5571 5577 5578 5585 5592 5596 5601 5606